Flag for U.S.A. Weather past 2 weeks in Decatur, Illinois, U.S.A.

Now
52 °F

Clear.


Feels Like: 52 °F
Forecast: 49 / 74 °F
Wind: No wind

Location: Decatur Airport

Current Time: Sep 19, 2014 at 12:48:35 AM

Latest Report: Sep 18, 2014 at 11:54 PM


Visibility: 10 mi

Pressure: 30.11 "Hg

Humidity: 80%

Dew point: 46 °F

Location of DecaturLocation

Historic Weather in Decatur — Graph

°F

Decatur temperature yesterday

Maximum temperature yesterday: 75 °F (at 3:54 PM)
Minimum temperature yesterday: 48 °F (at 6:54 AM)
Average temperature yesterday: 60 °F

Past Weeks' High & Low Weather Summary

 TemperatureHumidityPressure
High92 °F (Sep 5, 1:54 PM)100% (Sep 15, 1:54 PM)30.40 "Hg (Sep 15, 1:54 PM)
Low41 °F (Sep 14, 5:54 AM)36% (Sep 14, 5:54 PM)29.65 "Hg (Sep 10, 3:54 PM)
Average63 °F77%30.10 "Hg
* Reported Sep 3 11:54 PM — Sep 18 11:54 PM, Decatur, Weather by CustomWeather, © 2014

Note: Actual official high and low records may vary slightly from our data, if they occured in-between our weather recording intervals... More about our weather records

Advertising

Decatur weather history for previous 24 hours

 ConditionsComfort  
Time TempWeatherWind HumidityBarometerVisibility
11:54 PM
Sep 18
52 °FClear.No wind80%30.11 "Hg10 mi
10:54 PM52 °FClear.5 mph80%30.10 "Hg10 mi
9:54 PM53 °FClear.No wind80%30.11 "Hg10 mi
8:54 PM56 °FClear.3 mph75%30.10 "Hg10 mi
7:54 PM58 °FSunny.5 mph70%30.07 "Hg10 mi
6:54 PM63 °FSunny.7 mph60%30.05 "Hg10 mi
5:54 PM70 °FSunny.8 mph47%30.05 "Hg10 mi
4:54 PM73 °FSunny.8 mph43%30.04 "Hg10 mi
3:54 PM75 °FSunny.10 mph40%30.04 "Hg10 mi
2:54 PM74 °FSunny.10 mph46%30.05 "Hg10 mi
1:54 PM74 °FSunny.3 mph43%30.07 "Hg10 mi
12:54 PM73 °FSunny.13 mph46%30.09 "Hg10 mi
11:54 AM71 °FSunny.14 mph47%30.10 "Hg10 mi
10:54 AM69 °FSunny.13 mph51%30.11 "Hg10 mi
9:54 AM66 °FSunny.10 mph63%30.10 "Hg10 mi
8:54 AM62 °FSunny.9 mph75%30.10 "Hg10 mi
7:54 AM53 °FFog.7 mph93%30.08 "Hg4 mi
6:54 AM48 °FFog.No wind93%30.08 "Hg4 mi
5:54 AM49 °FClear.No wind93%30.06 "Hg7 mi
4:54 AM50 °FFog.No wind89%30.03 "Hg6 mi
3:54 AM51 °FFog.5 mph96%30.01 "Hg5 mi
2:54 AM50 °FFog.3 mph93%30.03 "Hg5 mi
1:54 AM52 °FFog.No wind97%30.03 "Hg4 mi
12:54 AM54 °FFog.No wind93%30.03 "Hg6 mi
Weather by CustomWeather, © 2014

See weather overviewHow to use our weather pages